KAWG

Details ICAO KAWG
Name WASHINGTON MUNI
Region United States
Timezone America/Chicago (UTC-5.0)
Plans Departing 0
Arriving 2
Stats Elevation 754 ft / 230 m (AMSL)
Location 41.275124° -91.675065°
Runways 2
Magnetic Variation 0.709° W
Sunrise 2018-05-24 10:42:02 UTC / 2018-05-24 05:42:02 Local
Sunset 2018-05-25 01:27:57 UTC / 2018-05-24 20:27:57 Local
Advertisement - Login to hide

Runways

ID Width Length Bearing (true) Bearing (mag) Surface Threshold Offset Overrun Length
13 50 ft / 15 m 3,398 ft / 1,036 m 134.84° 135.55° Concrete 0 ft / 0 m 0 ft / 0 m
18 75 ft / 23 m 4,007 ft / 1,221 m 183.06° 183.77° Concrete 0 ft / 0 m 0 ft / 0 m
31 50 ft / 15 m 3,398 ft / 1,036 m 314.85° 315.56° Concrete 335 ft / 102 m 0 ft / 0 m
36 75 ft / 23 m 4,007 ft / 1,221 m 3.06° 3.77° Concrete 0 ft / 0 m 0 ft / 0 m

Map

Weather


0- 5 10 15 20 25 30 35+ Temperature / ° C

Clouds and Precipitation
Forecast for 2018-05-24 06:00 UTC. Updated an hour ago

Ground ~20,000 ft ~40,000 ft Winds

METAR

KAWG 240615Z AUTO 16006KT 6SM BR CLR 20/20 A3013 RMK AO2

TAF

Not found

Frequencies

Recorded 127.82 MHz AWOS 3
Unicom 122.70 MHz CTAF/UNICOM
Warning: Do not use this data for real-world aviation or navigation. No guarantee of current accuracy is given.